NKS255C KEWR-KMYR

Flight info

Callsign NKS255C
Flight time 1h 30m
Altitude 38000
Route ELVAE NECCK WHITE Q409 CRPLR PAACK WYLMS
Aircraft A20N/M-SDE2E3FGHIRWXY/LB1

Departure

Time 2026-05-01 08:34
Airport Newark Liberty International Airport (KEWR)

Arrival

Time 2026-05-01 10:04
Airport Myrtle Beach International Airport (KMYR)
Time Latitude Longitude Altitude Speed Heading
2026-05-01 08:16 40.69411 -74.17416 13 ft 0 kts 15°
2026-05-01 08:22 40.69398 -74.17421 13 ft 2 kts 15°
2026-05-01 08:22 40.69384 -74.17426 13 ft 2 kts 15°
2026-05-01 08:22 40.69370 -74.17434 13 ft 2 kts 37°
2026-05-01 08:23 40.69359 -74.17448 13 ft 2 kts 54°
2026-05-01 08:23 40.69352 -74.17464 13 ft 2 kts 72°
2026-05-01 08:23 40.69349 -74.17484 13 ft 2 kts 90°
2026-05-01 08:23 40.69350 -74.17497 13 ft 0 kts 102°
2026-05-01 08:24 40.69352 -74.17506 13 ft 0 kts 104°
2026-05-01 08:26 40.69351 -74.17503 13 ft 0 kts 105°
2026-05-01 08:26 40.69347 -74.17483 13 ft 3 kts 104°
2026-05-01 08:27 40.69338 -74.17435 13 ft 7 kts 103°
2026-05-01 08:27 40.69323 -74.17354 13 ft 10 kts 106°
2026-05-01 08:27 40.69288 -74.17268 13 ft 11 kts 122°
2026-05-01 08:27 40.69246 -74.17172 13 ft 12 kts 119°
2026-05-01 08:28 40.69212 -74.17076 13 ft 6 kts 114°
2026-05-01 08:28 40.69187 -74.17062 13 ft 5 kts 184°
2026-05-01 08:28 40.69148 -74.17080 13 ft 6 kts 206°
2026-05-01 08:28 40.69098 -74.17112 13 ft 9 kts 206°
2026-05-01 08:29 40.69031 -74.17156 13 ft 12 kts 207°
2026-05-01 08:29 40.68946 -74.17210 13 ft 14 kts 205°
2026-05-01 08:29 40.68847 -74.17272 13 ft 16 kts 206°
2026-05-01 08:29 40.68737 -74.17342 13 ft 18 kts 205°
2026-05-01 08:30 40.68668 -74.17386 13 ft 19 kts 206°
2026-05-01 08:31 40.68517 -74.17481 13 ft 20 kts 206°
2026-05-01 08:31 40.68383 -74.17567 13 ft 21 kts 206°
2026-05-01 08:31 40.68245 -74.17655 13 ft 21 kts 205°
2026-05-01 08:31 40.68110 -74.17741 13 ft 21 kts 206°
2026-05-01 08:32 40.68048 -74.17776 13 ft 4 kts 178°
2026-05-01 08:32 40.68022 -74.17740 13 ft 6 kts 118°
2026-05-01 08:32 40.68012 -74.17677 13 ft 8 kts 76°
2026-05-01 08:32 40.68053 -74.17619 13 ft 9 kts 30°
2026-05-01 08:33 40.68117 -74.17576 13 ft 11 kts 26°
2026-05-01 08:33 40.68208 -74.17518 13 ft 28 kts 26°
2026-05-01 08:33 40.68646 -74.17240 13 ft 109 kts 26°
2026-05-01 08:33 40.69534 -74.16676 91 ft 164 kts 26°
2026-05-01 08:34 40.70555 -74.15998 810 ft 166 kts 27°
2026-05-01 08:34 40.71574 -74.15308 1604 ft 169 kts 26°
2026-05-01 08:34 40.72625 -74.14659 2374 ft 169 kts 12°
2026-05-01 08:34 40.73755 -74.14828 2964 ft 174 kts 324°
2026-05-01 08:35 40.74366 -74.16148 3634 ft 179 kts 273°
2026-05-01 08:35 40.73965 -74.17700 4310 ft 191 kts 234°
2026-05-01 08:35 40.72847 -74.18761 4876 ft 212 kts 206°
2026-05-01 08:35 40.71420 -74.19504 5530 ft 228 kts 204°
2026-05-01 08:36 40.69872 -74.20237 6191 ft 245 kts 201°
2026-05-01 08:36 40.68241 -74.20987 6892 ft 259 kts 201°
2026-05-01 08:36 40.66516 -74.21774 7701 ft 269 kts 201°
2026-05-01 08:36 40.64735 -74.22578 8587 ft 275 kts 201°
2026-05-01 08:37 40.62936 -74.23382 9520 ft 278 kts 201°
2026-05-01 08:37 40.61108 -74.24187 10494 ft 278 kts 201°
2026-05-01 08:37 40.59271 -74.24985 11472 ft 278 kts 202°
2026-05-01 08:37 40.57495 -74.25949 12141 ft 285 kts 213°
2026-05-01 08:38 40.55782 -74.27402 12590 ft 302 kts 216°
2026-05-01 08:38 40.54002 -74.28916 13165 ft 314 kts 215°
2026-05-01 08:38 40.52129 -74.30398 13985 ft 317 kts 214°
2026-05-01 08:38 40.50213 -74.31831 14818 ft 320 kts 213°
2026-05-01 08:39 40.48270 -74.33228 15625 ft 322 kts 213°
2026-05-01 08:39 40.46290 -74.34617 16401 ft 325 kts 212°
2026-05-01 08:39 40.44291 -74.35995 17155 ft 328 kts 212°
2026-05-01 08:39 40.42263 -74.37376 17905 ft 330 kts 212°
2026-05-01 08:40 40.38177 -74.40138 19290 ft 335 kts 212°
2026-05-01 08:40 40.36100 -74.41533 19951 ft 338 kts 212°
2026-05-01 08:40 40.33997 -74.42941 20599 ft 342 kts 212°
2026-05-01 08:41 40.31876 -74.44358 21233 ft 345 kts 212°
2026-05-01 08:41 40.29747 -74.45778 21848 ft 349 kts 212°
2026-05-01 08:41 40.27559 -74.47236 22488 ft 351 kts 212°
2026-05-01 08:41 40.25399 -74.48674 23075 ft 355 kts 212°
2026-05-01 08:42 40.23169 -74.50157 23686 ft 358 kts 212°
2026-05-01 08:42 40.20966 -74.51618 24271 ft 361 kts 212°
2026-05-01 08:42 40.18704 -74.53116 24853 ft 363 kts 212°
2026-05-01 08:42 40.16462 -74.54601 25444 ft 365 kts 212°
2026-05-01 08:43 40.14194 -74.56100 25994 ft 368 kts 213°
2026-05-01 08:43 40.11900 -74.57619 26555 ft 370 kts 213°
2026-05-01 08:43 40.09614 -74.59130 27096 ft 371 kts 213°
2026-05-01 08:43 40.07320 -74.60643 27635 ft 372 kts 214°
2026-05-01 08:44 40.04989 -74.62181 28154 ft 373 kts 214°
2026-05-01 08:44 40.02680 -74.63708 28643 ft 374 kts 214°
2026-05-01 08:44 40.00361 -74.65237 29077 ft 376 kts 214°
2026-05-01 08:44 39.98025 -74.66777 29514 ft 377 kts 214°
2026-05-01 08:45 39.95672 -74.68326 29940 ft 378 kts 214°
2026-05-01 08:45 39.93309 -74.69885 30269 ft 381 kts 215°
2026-05-01 08:45 39.90968 -74.71425 30555 ft 384 kts 215°
2026-05-01 08:45 39.88564 -74.73008 30890 ft 384 kts 215°
2026-05-01 08:46 39.86201 -74.74558 31284 ft 383 kts 214°
2026-05-01 08:46 39.83804 -74.76132 31585 ft 384 kts 214°
2026-05-01 08:46 39.81443 -74.77684 31885 ft 385 kts 214°
2026-05-01 08:46 39.79059 -74.79247 32188 ft 386 kts 214°
2026-05-01 08:47 39.76651 -74.80823 32491 ft 386 kts 214°
2026-05-01 08:47 39.74249 -74.82395 32818 ft 386 kts 214°
2026-05-01 08:47 39.71857 -74.83955 33116 ft 386 kts 214°
2026-05-01 08:47 39.69474 -74.85512 33367 ft 387 kts 214°
2026-05-01 08:48 39.67067 -74.87083 33655 ft 387 kts 214°
2026-05-01 08:48 39.64684 -74.88633 33932 ft 387 kts 214°
2026-05-01 08:48 39.62276 -74.90204 34241 ft 387 kts 214°
2026-05-01 08:48 39.59851 -74.91782 34569 ft 386 kts 214°
2026-05-01 08:49 39.57458 -74.93336 34851 ft 387 kts 214°
2026-05-01 08:49 39.55053 -74.94900 34969 ft 387 kts 214°
2026-05-01 08:49 39.52650 -74.96458 35204 ft 388 kts 214°
2026-05-01 08:49 39.50261 -74.98010 35442 ft 388 kts 214°
2026-05-01 08:50 39.47844 -74.99577 35660 ft 388 kts 214°
2026-05-01 08:50 39.45452 -75.01127 35896 ft 388 kts 214°
2026-05-01 08:50 39.43038 -75.02690 36136 ft 390 kts 214°
2026-05-01 08:50 39.40616 -75.04256 36365 ft 391 kts 214°
2026-05-01 08:51 39.38160 -75.05844 36569 ft 392 kts 214°
2026-05-01 08:51 39.35738 -75.07423 36758 ft 392 kts 215°
2026-05-01 08:51 39.33384 -75.09122 36957 ft 390 kts 218°
2026-05-01 08:51 39.31094 -75.10976 37126 ft 389 kts 220°
2026-05-01 08:52 39.28862 -75.12994 37289 ft 388 kts 223°
2026-05-01 08:52 39.26761 -75.15113 37434 ft 387 kts 226°
2026-05-01 08:52 39.24726 -75.17381 37563 ft 387 kts 228°
2026-05-01 08:52 39.22729 -75.19714 37684 ft 388 kts 228°
2026-05-01 08:53 39.20735 -75.22035 37836 ft 389 kts 228°
2026-05-01 08:53 39.18727 -75.24373 37848 ft 390 kts 228°
2026-05-01 08:53 39.14717 -75.29050 37848 ft 390 kts 228°
2026-05-01 08:54 39.10685 -75.33742 37862 ft 391 kts 228°
2026-05-01 08:54 39.06546 -75.38250 37870 ft 395 kts 222°
2026-05-01 08:55 39.01783 -75.41868 37841 ft 403 kts 213°
2026-05-01 08:55 38.96456 -75.44370 37874 ft 415 kts 203°
2026-05-01 08:56 38.90704 -75.45631 37895 ft 426 kts 196°
2026-05-01 08:56 38.84812 -75.46461 37863 ft 425 kts 195°
2026-05-01 08:57 38.78916 -75.47272 37903 ft 425 kts 196°
2026-05-01 08:57 38.73054 -75.48083 37861 ft 423 kts 196°
2026-05-01 08:58 38.67194 -75.48886 37878 ft 424 kts 196°
2026-05-01 08:58 38.61362 -75.49677 37874 ft 424 kts 196°
2026-05-01 08:59 38.55502 -75.50473 37871 ft 423 kts 196°
2026-05-01 08:59 38.49626 -75.51268 37882 ft 423 kts 196°
2026-05-01 09:00 38.43770 -75.52058 37875 ft 423 kts 196°
2026-05-01 09:00 38.38092 -75.53341 37887 ft 412 kts 205°
2026-05-01 09:01 38.32716 -75.55647 37869 ft 403 kts 212°
2026-05-01 09:01 38.27776 -75.58852 37867 ft 394 kts 220°
2026-05-01 09:02 38.23269 -75.62671 37865 ft 391 kts 223°
2026-05-01 09:02 38.18769 -75.66574 37875 ft 391 kts 222°
2026-05-01 09:03 38.14298 -75.70452 37914 ft 390 kts 222°
2026-05-01 09:03 38.09830 -75.74329 37881 ft 390 kts 222°
2026-05-01 09:04 38.05368 -75.78191 37867 ft 391 kts 223°
2026-05-01 09:04 38.00898 -75.82061 37885 ft 389 kts 223°
2026-05-01 09:05 37.96418 -75.85929 37864 ft 390 kts 223°
2026-05-01 09:05 37.91910 -75.89819 37880 ft 391 kts 223°
2026-05-01 09:06 37.87425 -75.93682 37880 ft 391 kts 222°
2026-05-01 09:06 37.82961 -75.97516 37883 ft 390 kts 223°
2026-05-01 09:07 37.78454 -76.01386 37883 ft 389 kts 222°
2026-05-01 09:07 37.74017 -76.05188 37823 ft 389 kts 223°
2026-05-01 09:08 37.69516 -76.09047 37884 ft 389 kts 222°
2026-05-01 09:08 37.65051 -76.12858 37897 ft 389 kts 223°
2026-05-01 09:09 37.60515 -76.16585 37906 ft 392 kts 220°
2026-05-01 09:09 37.55734 -76.19865 37887 ft 393 kts 217°
2026-05-01 09:10 37.50863 -76.23119 37891 ft 396 kts 217°
2026-05-01 09:10 37.45998 -76.26363 37886 ft 394 kts 217°
2026-05-01 09:11 37.41161 -76.29578 37887 ft 394 kts 217°
2026-05-01 09:11 37.36315 -76.32790 37897 ft 394 kts 217°
2026-05-01 09:12 37.31493 -76.35980 37897 ft 393 kts 218°
2026-05-01 09:12 37.26671 -76.39168 37891 ft 394 kts 218°
2026-05-01 09:13 37.21808 -76.42381 37897 ft 392 kts 217°
2026-05-01 09:13 37.17003 -76.45542 37891 ft 392 kts 218°
2026-05-01 09:14 37.12183 -76.48719 37897 ft 393 kts 218°
2026-05-01 09:14 37.07348 -76.51897 37904 ft 394 kts 218°
2026-05-01 09:15 37.02500 -76.55079 37912 ft 392 kts 217°
2026-05-01 09:15 36.97668 -76.58241 37890 ft 393 kts 218°
2026-05-01 09:16 36.92862 -76.61385 37883 ft 394 kts 218°
2026-05-01 09:17 36.85571 -76.66148 37889 ft 396 kts 218°
2026-05-01 09:17 36.78257 -76.70915 37895 ft 393 kts 217°
2026-05-01 09:18 36.70971 -76.75651 37897 ft 395 kts 217°
2026-05-01 09:19 36.63672 -76.80391 38054 ft 396 kts 218°
2026-05-01 09:20 36.56378 -76.85111 37917 ft 393 kts 218°
2026-05-01 09:21 36.46663 -76.91384 37899 ft 393 kts 218°
2026-05-01 09:21 36.39395 -76.96072 37888 ft 394 kts 218°
2026-05-01 09:22 36.29650 -77.02331 37901 ft 397 kts 218°
2026-05-01 09:23 36.22332 -77.07023 37906 ft 398 kts 218°
2026-05-01 09:24 36.14961 -77.11740 37904 ft 398 kts 218°
2026-05-01 09:25 36.05141 -77.18003 37905 ft 398 kts 218°
2026-05-01 09:26 35.97776 -77.22688 37909 ft 398 kts 218°
2026-05-01 09:26 35.90325 -77.27249 37905 ft 399 kts 216°
2026-05-01 09:27 35.82757 -77.31567 37908 ft 401 kts 216°
2026-05-01 09:28 35.77718 -77.34431 37909 ft 402 kts 216°
2026-05-01 09:28 35.72658 -77.37305 37907 ft 402 kts 216°
2026-05-01 09:29 35.65039 -77.41617 37907 ft 402 kts 216°
2026-05-01 09:30 35.57410 -77.45929 37907 ft 405 kts 216°
2026-05-01 09:30 35.49750 -77.50249 37907 ft 405 kts 216°
2026-05-01 09:31 35.44654 -77.53116 37907 ft 404 kts 216°
2026-05-01 09:32 35.37002 -77.57416 37909 ft 403 kts 216°
2026-05-01 09:32 35.29326 -77.61719 37910 ft 405 kts 217°
2026-05-01 09:33 35.24224 -77.64575 37911 ft 405 kts 217°
2026-05-01 09:34 35.16535 -77.68870 37910 ft 407 kts 216°
2026-05-01 09:34 35.08751 -77.73214 37915 ft 410 kts 216°
2026-05-01 09:35 35.01013 -77.77517 37900 ft 409 kts 216°
2026-05-01 09:36 34.95833 -77.80398 37893 ft 409 kts 216°
2026-05-01 09:36 34.90690 -77.83247 37907 ft 406 kts 217°
2026-05-01 09:37 34.85273 -77.85689 37906 ft 429 kts 204°
2026-05-01 09:37 34.76515 -77.87483 37910 ft 424 kts 202°
2026-05-01 09:38 34.70705 -77.88657 37507 ft 421 kts 202°
2026-05-01 09:38 34.67819 -77.89249 37224 ft 418 kts 202°
2026-05-01 09:38 34.64970 -77.89835 36917 ft 414 kts 202°
2026-05-01 09:39 34.59342 -77.91000 36081 ft 409 kts 202°
2026-05-01 09:39 34.56520 -77.91587 35503 ft 409 kts 202°
2026-05-01 09:39 34.53754 -77.92162 34902 ft 408 kts 201°
2026-05-01 09:40 34.50952 -77.92745 34336 ft 408 kts 201°
2026-05-01 09:40 34.45385 -77.93900 33212 ft 405 kts 201°
2026-05-01 09:40 34.42594 -77.94478 32627 ft 407 kts 200°
2026-05-01 09:41 34.39797 -77.95063 31939 ft 409 kts 200°
2026-05-01 09:41 34.34218 -77.96221 30492 ft 411 kts 198°
2026-05-01 09:41 34.31409 -77.96801 29750 ft 412 kts 198°
2026-05-01 09:42 34.28558 -77.97386 28972 ft 413 kts 198°
2026-05-01 09:42 34.25748 -77.97961 28193 ft 414 kts 197°
2026-05-01 09:42 34.20148 -77.99103 27052 ft 405 kts 197°
2026-05-01 09:43 34.14617 -78.00234 25819 ft 400 kts 197°
2026-05-01 09:43 34.11887 -78.00795 25224 ft 397 kts 196°
2026-05-01 09:43 34.09166 -78.01351 24611 ft 394 kts 195°
2026-05-01 09:44 34.03829 -78.02445 23407 ft 390 kts 195°
2026-05-01 09:44 34.01126 -78.03002 22774 ft 389 kts 195°
2026-05-01 09:44 33.98465 -78.03546 22162 ft 388 kts 194°
2026-05-01 09:45 33.95844 -78.04076 21588 ft 385 kts 194°
2026-05-01 09:45 33.90588 -78.05145 20540 ft 378 kts 194°
2026-05-01 09:45 33.88006 -78.05670 20022 ft 374 kts 194°
2026-05-01 09:46 33.85477 -78.06183 19510 ft 372 kts 195°
2026-05-01 09:46 33.82940 -78.06699 19020 ft 368 kts 194°
2026-05-01 09:46 33.80401 -78.07216 18514 ft 365 kts 194°
2026-05-01 09:46 33.77937 -78.07716 18010 ft 362 kts 195°
2026-05-01 09:47 33.75441 -78.08223 17519 ft 359 kts 195°
2026-05-01 09:47 33.73001 -78.08720 17062 ft 356 kts 195°
2026-05-01 09:47 33.70563 -78.09216 16576 ft 354 kts 195°
2026-05-01 09:47 33.68146 -78.09706 16090 ft 352 kts 195°
2026-05-01 09:48 33.65754 -78.10194 15576 ft 350 kts 195°
2026-05-01 09:48 33.63375 -78.10676 15109 ft 347 kts 195°
2026-05-01 09:48 33.60997 -78.11159 14609 ft 345 kts 194°
2026-05-01 09:48 33.58615 -78.11641 14081 ft 344 kts 194°
2026-05-01 09:49 33.56268 -78.12114 13586 ft 341 kts 194°
2026-05-01 09:49 33.53944 -78.12584 13101 ft 338 kts 194°
2026-05-01 09:49 33.51626 -78.13052 12585 ft 337 kts 194°
2026-05-01 09:49 33.49311 -78.13525 12080 ft 334 kts 195°
2026-05-01 09:50 33.47183 -78.14455 11544 ft 325 kts 216°
2026-05-01 09:50 33.45593 -78.16305 11041 ft 318 kts 238°
2026-05-01 09:50 33.44736 -78.18672 10566 ft 314 kts 258°
2026-05-01 09:50 33.44652 -78.21183 10341 ft 292 kts 273°
2026-05-01 09:51 33.44819 -78.23522 10160 ft 276 kts 273°
2026-05-01 09:51 33.44975 -78.25774 9984 ft 265 kts 273°
2026-05-01 09:51 33.45124 -78.27926 9851 ft 256 kts 273°
2026-05-01 09:51 33.45267 -78.30056 9444 ft 259 kts 273°
2026-05-01 09:52 33.45409 -78.32192 9056 ft 259 kts 274°
2026-05-01 09:52 33.45553 -78.34332 8695 ft 259 kts 274°
2026-05-01 09:52 33.45697 -78.36490 8315 ft 259 kts 274°
2026-05-01 09:52 33.45838 -78.38606 7953 ft 258 kts 274°
2026-05-01 09:53 33.45982 -78.40748 7590 ft 257 kts 274°
2026-05-01 09:53 33.46122 -78.42859 7245 ft 256 kts 274°
2026-05-01 09:53 33.46263 -78.44978 6919 ft 254 kts 274°
2026-05-01 09:53 33.46401 -78.47063 6566 ft 253 kts 274°
2026-05-01 09:54 33.46541 -78.49185 6209 ft 252 kts 275°
2026-05-01 09:54 33.46677 -78.51240 5885 ft 250 kts 275°
2026-05-01 09:54 33.46814 -78.53316 5538 ft 249 kts 275°
2026-05-01 09:54 33.46949 -78.55379 5200 ft 248 kts 275°
2026-05-01 09:55 33.47084 -78.57446 4863 ft 248 kts 276°
2026-05-01 09:55 33.47216 -78.59494 4527 ft 247 kts 276°
2026-05-01 09:55 33.47351 -78.61549 4183 ft 246 kts 276°
2026-05-01 09:55 33.47482 -78.63561 3922 ft 241 kts 276°
2026-05-01 09:56 33.47609 -78.65528 3633 ft 238 kts 276°
2026-05-01 09:56 33.47736 -78.67488 3372 ft 234 kts 276°
2026-05-01 09:56 33.47860 -78.69409 3141 ft 229 kts 277°
2026-05-01 09:56 33.47980 -78.71282 3034 ft 221 kts 277°
2026-05-01 09:57 33.48098 -78.73112 2995 ft 221 kts 277°
2026-05-01 09:57 33.48215 -78.74934 2957 ft 221 kts 277°
2026-05-01 09:57 33.48333 -78.76785 2911 ft 222 kts 277°
2026-05-01 09:57 33.48450 -78.78610 2801 ft 222 kts 277°
2026-05-01 09:58 33.48568 -78.80474 2654 ft 222 kts 277°
2026-05-01 09:58 33.48684 -78.82320 2417 ft 224 kts 278°
2026-05-01 09:58 33.48798 -78.84139 2189 ft 220 kts 278°
2026-05-01 09:58 33.48923 -78.85948 1961 ft 215 kts 284°
2026-05-01 09:59 33.49554 -78.87498 1696 ft 203 kts 319°
2026-05-01 09:59 33.50704 -78.88358 1590 ft 188 kts 339°
2026-05-01 09:59 33.51891 -78.88802 1567 ft 170 kts 346°
2026-05-01 09:59 33.53008 -78.89101 1509 ft 154 kts 348°
2026-05-01 10:00 33.54001 -78.89345 1478 ft 136 kts 348°
2026-05-01 10:00 33.54906 -78.89568 1485 ft 131 kts 348°
2026-05-01 10:00 33.55798 -78.89790 1501 ft 130 kts 348°
2026-05-01 10:00 33.56689 -78.90013 1512 ft 130 kts 348°
2026-05-01 10:01 33.57576 -78.90236 1510 ft 130 kts 348°
2026-05-01 10:01 33.58468 -78.90459 1540 ft 131 kts 348°
2026-05-01 10:01 33.59375 -78.90686 1470 ft 132 kts 348°
2026-05-01 10:01 33.60263 -78.90909 1307 ft 130 kts 348°
2026-05-01 10:02 33.61152 -78.91131 1136 ft 130 kts 348°
2026-05-01 10:02 33.62035 -78.91349 966 ft 129 kts 350°
2026-05-01 10:02 33.62912 -78.91564 792 ft 129 kts 349°
2026-05-01 10:02 33.63791 -78.91785 624 ft 128 kts 349°
2026-05-01 10:03 33.64660 -78.92004 459 ft 128 kts 349°
2026-05-01 10:03 33.65536 -78.92223 286 ft 127 kts 349°
2026-05-01 10:03 33.66388 -78.92432 122 ft 125 kts 349°
2026-05-01 10:03 33.67226 -78.92646 29 ft 113 kts 349°
2026-05-01 10:04 33.67826 -78.92796 29 ft 63 kts 347°
2026-05-01 10:04 33.68061 -78.92855 29 ft 0 kts 347°
2026-05-01 10:04 33.68067 -78.92857 29 ft 1 kts 347°
2026-05-01 10:04 33.68084 -78.92861 28 ft 3 kts 347°
2026-05-01 10:05 33.64207 -78.91891 546 ft 128 kts 349°
2026-05-01 10:05 33.65084 -78.92110 375 ft 128 kts 349°
2026-05-01 10:05 33.65952 -78.92323 212 ft 126 kts 349°
2026-05-01 10:05 33.66801 -78.92539 46 ft 124 kts 349°
2026-05-01 10:06 33.67536 -78.92722 29 ft 83 kts 348°
2026-05-01 10:06 33.67824 -78.92796 29 ft 14 kts 349°
2026-05-01 10:06 33.67923 -78.92818 29 ft 14 kts 349°